PKARZ WAMM-WAMN

Flight info

Callsign PKARZ
Flight time 0h 52m
Altitude 25000
Route BONDA DCT SELSO
Aircraft PC12/L-SDFGRWY/S

Departure

Time 2026-04-14 14:25
Airport Sam Ratulangi International Airport (WAMM)

Arrival

Time 2026-04-14 15:18
Airport Melangguane Airport (WAMN)
Time Latitude Longitude Altitude Speed Heading
2026-04-14 14:20 1.53964 124.92320 331 ft 0 kts 271°
2026-04-14 14:22 1.53961 124.92318 331 ft 2 kts 173°
2026-04-14 14:23 1.53960 124.92369 333 ft 15 kts 93°
2026-04-14 14:23 1.54052 124.92402 331 ft 26 kts 355°
2026-04-14 14:23 1.54094 124.92412 330 ft 6 kts 10°
2026-04-14 14:23 1.54149 124.92465 333 ft 18 kts 97°
2026-04-14 14:24 1.54158 124.92610 332 ft 18 kts 17°
2026-04-14 14:24 1.54200 124.92613 332 ft 0 kts
2026-04-14 14:24 1.54286 124.92615 333 ft 40 kts
2026-04-14 14:25 1.54792 124.92624 337 ft 100 kts 360°
2026-04-14 14:25 1.55582 124.92629 646 ft 122 kts 357°
2026-04-14 14:25 1.56547 124.92509 967 ft 148 kts 349°
2026-04-14 14:25 1.57532 124.92334 1871 ft 136 kts 348°
2026-04-14 14:26 1.58464 124.92192 2634 ft 137 kts 351°
2026-04-14 14:26 1.59443 124.92083 3251 ft 148 kts 352°
2026-04-14 14:26 1.60475 124.91986 3988 ft 148 kts 352°
2026-04-14 14:26 1.61503 124.91892 4730 ft 149 kts 352°
2026-04-14 14:27 1.62542 124.91799 5462 ft 149 kts 351°
2026-04-14 14:27 1.63583 124.91707 6120 ft 151 kts 351°
2026-04-14 14:27 1.64625 124.91614 6826 ft 150 kts 350°
2026-04-14 14:27 1.65662 124.91521 7466 ft 153 kts 350°
2026-04-14 14:28 1.66729 124.91425 8136 ft 154 kts 350°
2026-04-14 14:28 1.67819 124.91328 8817 ft 156 kts 350°
2026-04-14 14:28 1.68897 124.91232 9482 ft 158 kts 349°
2026-04-14 14:28 1.69995 124.91133 10123 ft 160 kts 349°
2026-04-14 14:29 1.71119 124.91033 10728 ft 162 kts 349°
2026-04-14 14:29 1.72252 124.90932 11332 ft 164 kts 349°
2026-04-14 14:29 1.73387 124.90831 11931 ft 166 kts 349°
2026-04-14 14:29 1.74541 124.90728 12530 ft 168 kts 350°
2026-04-14 14:30 1.75717 124.90623 13129 ft 170 kts 350°
2026-04-14 14:30 1.76907 124.90517 13731 ft 172 kts 350°
2026-04-14 14:30 1.78109 124.90409 14256 ft 175 kts 350°
2026-04-14 14:30 1.79328 124.90300 14779 ft 177 kts 350°
2026-04-14 14:31 1.80564 124.90190 15293 ft 179 kts 350°
2026-04-14 14:31 1.81814 124.90078 15829 ft 181 kts 350°
2026-04-14 14:31 1.83067 124.89967 16347 ft 183 kts 350°
2026-04-14 14:31 1.84372 124.89849 16818 ft 191 kts 350°
2026-04-14 14:32 1.85764 124.89722 16943 ft 214 kts 351°
2026-04-14 14:32 1.87315 124.89584 16945 ft 237 kts 351°
2026-04-14 14:32 1.89030 124.89434 16925 ft 250 kts 353°
2026-04-14 14:32 1.90789 124.89280 16921 ft 258 kts 353°
2026-04-14 14:33 1.92592 124.89120 16911 ft 262 kts 352°
2026-04-14 14:33 1.94382 124.88959 16912 ft 264 kts 352°
2026-04-14 14:33 1.96219 124.88795 16916 ft 265 kts 353°
2026-04-14 14:33 1.98089 124.88628 16916 ft 265 kts 353°
2026-04-14 14:34 2.01752 124.88301 16913 ft 266 kts 353°
2026-04-14 14:34 2.03612 124.88347 16907 ft 268 kts
2026-04-14 14:34 2.05407 124.88875 16901 ft 271 kts 21°
2026-04-14 14:35 2.07031 124.89832 16900 ft 272 kts 34°
2026-04-14 14:35 2.08575 124.90938 16904 ft 272 kts 33°
2026-04-14 14:35 2.10101 124.92016 16899 ft 272 kts 33°
2026-04-14 14:35 2.11650 124.93107 16906 ft 272 kts 33°
2026-04-14 14:36 2.13205 124.94206 16909 ft 272 kts 33°
2026-04-14 14:36 2.14750 124.95298 16908 ft 272 kts 33°
2026-04-14 14:36 2.16300 124.96394 16906 ft 272 kts 33°
2026-04-14 14:36 2.17847 124.97488 16907 ft 272 kts 33°
2026-04-14 14:37 2.19395 124.98582 16912 ft 272 kts 34°
2026-04-14 14:37 2.20406 124.99297 16905 ft 271 kts 34°
2026-04-14 14:37 2.21960 125.00395 16912 ft 271 kts 34°
2026-04-14 14:37 2.23997 125.01835 16907 ft 270 kts 34°
2026-04-14 14:38 2.25532 125.02921 16909 ft 270 kts 34°
2026-04-14 14:38 2.26571 125.03655 16905 ft 270 kts 34°
2026-04-14 14:38 2.28106 125.04740 16906 ft 270 kts 34°
2026-04-14 14:38 2.29644 125.05828 16911 ft 270 kts 34°
2026-04-14 14:39 2.31181 125.06914 16908 ft 270 kts 34°
2026-04-14 14:39 2.32698 125.07987 16910 ft 270 kts 34°
2026-04-14 14:39 2.34235 125.09073 16909 ft 270 kts 34°
2026-04-14 14:39 2.35791 125.10175 16911 ft 270 kts 34°
2026-04-14 14:40 2.37308 125.11246 16903 ft 270 kts 34°
2026-04-14 14:40 2.38843 125.12332 16911 ft 270 kts 34°
2026-04-14 14:40 2.40388 125.13424 16907 ft 270 kts 34°
2026-04-14 14:40 2.41924 125.14511 16911 ft 270 kts 34°
2026-04-14 14:41 2.43458 125.15596 16904 ft 270 kts 34°
2026-04-14 14:41 2.44993 125.16682 16911 ft 270 kts 34°
2026-04-14 14:41 2.46529 125.17768 16906 ft 270 kts 34°
2026-04-14 14:41 2.48062 125.18852 16907 ft 270 kts 34°
2026-04-14 14:42 2.49600 125.19939 16916 ft 270 kts 34°
2026-04-14 14:42 2.51134 125.21024 16908 ft 270 kts 34°
2026-04-14 14:42 2.52676 125.22115 16912 ft 270 kts 34°
2026-04-14 14:42 2.54210 125.23201 16916 ft 270 kts 34°
2026-04-14 14:43 2.55726 125.24273 16913 ft 270 kts 34°
2026-04-14 14:43 2.57259 125.25357 16916 ft 270 kts 34°
2026-04-14 14:43 2.58792 125.26442 16912 ft 270 kts 34°
2026-04-14 14:43 2.60348 125.27542 16916 ft 270 kts 34°
2026-04-14 14:44 2.61876 125.28623 16908 ft 270 kts 34°
2026-04-14 14:44 2.63389 125.29694 16906 ft 270 kts 34°
2026-04-14 14:44 2.64935 125.30788 16911 ft 270 kts 34°
2026-04-14 14:44 2.66475 125.31877 16913 ft 270 kts 34°
2026-04-14 14:45 2.68011 125.32964 16913 ft 270 kts 34°
2026-04-14 14:45 2.69549 125.34052 16912 ft 270 kts 34°
2026-04-14 14:45 2.71083 125.35137 16912 ft 270 kts 34°
2026-04-14 14:45 2.72617 125.36223 16912 ft 270 kts 34°
2026-04-14 14:46 2.74135 125.37297 16914 ft 271 kts 34°
2026-04-14 14:46 2.75691 125.38398 16910 ft 271 kts 34°
2026-04-14 14:46 2.77233 125.39489 16914 ft 271 kts 34°
2026-04-14 14:46 2.78778 125.40583 16911 ft 271 kts 34°
2026-04-14 14:47 2.80305 125.41663 16909 ft 271 kts 34°
2026-04-14 14:47 2.81838 125.42749 16910 ft 270 kts 34°
2026-04-14 14:47 2.83373 125.43835 16910 ft 270 kts 34°
2026-04-14 14:47 2.84913 125.44925 16909 ft 270 kts 34°
2026-04-14 14:48 2.86447 125.46010 16910 ft 270 kts 34°
2026-04-14 14:48 2.87983 125.47098 16909 ft 270 kts 34°
2026-04-14 14:48 2.89519 125.48185 16908 ft 270 kts 34°
2026-04-14 14:48 2.91055 125.49272 16910 ft 270 kts 34°
2026-04-14 14:49 2.92592 125.50360 16915 ft 270 kts 34°
2026-04-14 14:49 2.94133 125.51451 16914 ft 270 kts 34°
2026-04-14 14:49 2.95668 125.52538 16915 ft 271 kts 34°
2026-04-14 14:49 2.97211 125.53631 16915 ft 271 kts 34°
2026-04-14 14:50 2.98729 125.54705 16912 ft 271 kts 34°
2026-04-14 14:50 3.00266 125.55793 16913 ft 271 kts 34°
2026-04-14 14:50 3.01809 125.56886 16913 ft 271 kts 34°
2026-04-14 14:50 3.03343 125.57972 16910 ft 270 kts 34°
2026-04-14 14:51 3.04881 125.59061 16912 ft 270 kts 34°
2026-04-14 14:51 3.06417 125.60149 16912 ft 270 kts 34°
2026-04-14 14:51 3.07955 125.61238 16912 ft 270 kts 34°
2026-04-14 14:51 3.09491 125.62326 16912 ft 270 kts 34°
2026-04-14 14:52 3.11031 125.63416 16909 ft 271 kts 34°
2026-04-14 14:52 3.12563 125.64501 16909 ft 270 kts 34°
2026-04-14 14:52 3.14075 125.65572 16909 ft 270 kts 34°
2026-04-14 14:52 3.15609 125.66659 16909 ft 270 kts 34°
2026-04-14 14:53 3.17141 125.67744 16908 ft 270 kts 34°
2026-04-14 14:53 3.18672 125.68828 16908 ft 270 kts 34°
2026-04-14 14:53 3.20209 125.69917 16908 ft 270 kts 34°
2026-04-14 14:53 3.21743 125.71003 16908 ft 270 kts 34°
2026-04-14 14:54 3.23258 125.72077 16908 ft 270 kts 34°
2026-04-14 14:54 3.24792 125.73164 16908 ft 270 kts 34°
2026-04-14 14:54 3.26320 125.74247 16908 ft 270 kts 34°
2026-04-14 14:54 3.27859 125.75337 16908 ft 270 kts 34°
2026-04-14 14:55 3.29385 125.76418 16905 ft 270 kts 34°
2026-04-14 14:55 3.30922 125.77507 16905 ft 270 kts 34°
2026-04-14 14:55 3.32456 125.78594 16905 ft 270 kts 34°
2026-04-14 14:55 3.33996 125.79685 16905 ft 270 kts 34°
2026-04-14 14:56 3.37069 125.81863 16906 ft 270 kts 34°
2026-04-14 14:56 3.38601 125.82949 16907 ft 270 kts 34°
2026-04-14 14:56 3.40124 125.84028 16907 ft 270 kts 34°
2026-04-14 14:57 3.41653 125.85112 16909 ft 270 kts 34°
2026-04-14 14:57 3.43193 125.86203 16909 ft 270 kts 34°
2026-04-14 14:57 3.44736 125.87297 16909 ft 270 kts 34°
2026-04-14 14:57 3.46277 125.88389 16909 ft 270 kts 34°
2026-04-14 14:58 3.47806 125.89473 16907 ft 270 kts 34°
2026-04-14 14:58 3.49345 125.90564 16907 ft 270 kts 34°
2026-04-14 14:58 3.50884 125.91655 16907 ft 270 kts 34°
2026-04-14 14:58 3.52401 125.92730 16907 ft 270 kts 34°
2026-04-14 14:59 3.53929 125.93814 16907 ft 270 kts 34°
2026-04-14 14:59 3.55455 125.94896 16906 ft 270 kts 34°
2026-04-14 14:59 3.57000 125.95991 16906 ft 270 kts 34°
2026-04-14 14:59 3.58547 125.97088 16906 ft 270 kts 34°
2026-04-14 15:00 3.60082 125.98177 16909 ft 270 kts 34°
2026-04-14 15:00 3.61619 125.99266 16905 ft 270 kts 34°
2026-04-14 15:00 3.63155 126.00356 16905 ft 270 kts 34°
2026-04-14 15:00 3.64693 126.01446 16905 ft 271 kts 34°
2026-04-14 15:01 3.66232 126.02537 16908 ft 270 kts 34°
2026-04-14 15:01 3.67766 126.03626 16908 ft 270 kts 34°
2026-04-14 15:01 3.69302 126.04715 16908 ft 270 kts 34°
2026-04-14 15:01 3.70840 126.05806 16907 ft 270 kts 34°
2026-04-14 15:02 3.72398 126.06911 16907 ft 269 kts 34°
2026-04-14 15:02 3.73925 126.07994 16907 ft 269 kts 34°
2026-04-14 15:02 3.75456 126.09080 16907 ft 269 kts 34°
2026-04-14 15:02 3.76983 126.10164 16907 ft 269 kts 34°
2026-04-14 15:03 3.78499 126.11239 16903 ft 269 kts 34°
2026-04-14 15:03 3.80042 126.12333 16680 ft 276 kts 34°
2026-04-14 15:03 3.81633 126.13463 16331 ft 282 kts 34°
2026-04-14 15:03 3.83241 126.14604 15961 ft 284 kts 34°
2026-04-14 15:04 3.84864 126.15756 15579 ft 285 kts 34°
2026-04-14 15:04 3.86460 126.16889 15208 ft 279 kts 34°
2026-04-14 15:04 3.88033 126.18006 14842 ft 276 kts 34°
2026-04-14 15:04 3.89586 126.19107 14481 ft 275 kts 34°
2026-04-14 15:05 3.91149 126.20217 14121 ft 275 kts 34°
2026-04-14 15:05 3.92708 126.21323 13765 ft 274 kts 34°
2026-04-14 15:05 3.94263 126.22427 13367 ft 273 kts 34°
2026-04-14 15:05 3.95813 126.23527 12951 ft 273 kts 34°
2026-04-14 15:06 3.97286 126.24733 12440 ft 276 kts 50°
2026-04-14 15:06 3.98147 126.26447 12047 ft 276 kts 71°
2026-04-14 15:06 3.98460 126.28346 11680 ft 276 kts 90°
2026-04-14 15:06 3.98183 126.30230 11402 ft 273 kts 108°
2026-04-14 15:07 3.97409 126.31971 11059 ft 277 kts 118°
2026-04-14 15:07 3.96542 126.33688 10701 ft 280 kts 117°
2026-04-14 15:07 3.95688 126.35455 10326 ft 282 kts 116°
2026-04-14 15:07 3.94845 126.37235 9951 ft 282 kts 116°
2026-04-14 15:08 3.93997 126.39005 9550 ft 281 kts 116°
2026-04-14 15:08 3.93150 126.40764 9172 ft 279 kts 116°
2026-04-14 15:08 3.92321 126.42490 8813 ft 277 kts 116°
2026-04-14 15:08 3.91488 126.44223 8452 ft 275 kts 116°
2026-04-14 15:09 3.90657 126.45952 8044 ft 274 kts 116°
2026-04-14 15:09 3.89836 126.47662 7721 ft 270 kts 116°
2026-04-14 15:09 3.89025 126.49351 7386 ft 268 kts 116°
2026-04-14 15:09 3.88214 126.51038 7037 ft 267 kts 116°
2026-04-14 15:10 3.87410 126.52712 6692 ft 266 kts 115°
2026-04-14 15:10 3.86610 126.54377 6342 ft 265 kts 115°
2026-04-14 15:10 3.85808 126.56046 5978 ft 263 kts 115°
2026-04-14 15:10 3.85026 126.57673 5632 ft 260 kts 115°
2026-04-14 15:11 3.84245 126.59298 5288 ft 258 kts 115°
2026-04-14 15:11 3.83458 126.60936 4943 ft 256 kts 114°
2026-04-14 15:11 3.82950 126.61993 4720 ft 251 kts 114°
2026-04-14 15:11 3.82246 126.63514 4168 ft 226 kts 107°
2026-04-14 15:12 3.82420 126.65416 3650 ft 195 kts 67°
2026-04-14 15:12 3.82852 126.66188 3461 ft 182 kts 53°
2026-04-14 15:12 3.83711 126.67012 3238 ft 162 kts 34°
2026-04-14 15:12 3.84659 126.67467 3027 ft 144 kts 17°
2026-04-14 15:13 3.85580 126.67619 2844 ft 127 kts
2026-04-14 15:13 3.86435 126.67590 2681 ft 121 kts 359°
2026-04-14 15:13 3.87328 126.67568 2537 ft 138 kts 359°
2026-04-14 15:13 3.88332 126.67548 2352 ft 147 kts 360°
2026-04-14 15:14 3.89361 126.67531 2149 ft 148 kts
2026-04-14 15:14 3.90389 126.67512 1943 ft 143 kts 360°
2026-04-14 15:14 3.91369 126.67492 1763 ft 143 kts
2026-04-14 15:14 3.92319 126.67475 1583 ft 130 kts
2026-04-14 15:15 3.93168 126.67459 1417 ft 114 kts 360°
2026-04-14 15:15 3.93908 126.67445 1254 ft 98 kts
2026-04-14 15:15 3.94585 126.67433 1127 ft 97 kts
2026-04-14 15:15 3.95219 126.67419 1014 ft 97 kts 360°
2026-04-14 15:16 3.95897 126.67408 897 ft 97 kts
2026-04-14 15:16 3.96573 126.67397 768 ft 96 kts
2026-04-14 15:16 3.97231 126.67384 642 ft 94 kts 360°
2026-04-14 15:16 3.97882 126.67372 518 ft 95 kts
2026-04-14 15:17 3.98555 126.67360 395 ft 95 kts
2026-04-14 15:17 3.99217 126.67348 266 ft 96 kts
2026-04-14 15:17 3.99876 126.67335 123 ft 95 kts
2026-04-14 15:17 4.00523 126.67328 18 ft 88 kts
2026-04-14 15:18 4.01004 126.67320 20 ft 42 kts 359°
2026-04-14 15:18 4.01063 126.67321 21 ft 3 kts 173°
2026-04-14 15:18 4.00955 126.67319 19 ft 26 kts 178°
2026-04-14 15:18 4.00728 126.67327 18 ft 38 kts 180°
2026-04-14 15:19 4.00598 126.67338 18 ft 4 kts 115°
2026-04-14 15:19 4.00600 126.67407 16 ft 6 kts 72°
2026-04-14 15:19 4.00593 126.67414 16 ft 0 kts 175°